Lytton, British Columbia

6:12 AM PDT on June 27, 2017 (GMT -0700)
Lytton

Weather History for CWLY - August, 2013

Change the Weather History Date:

Sunday, August 18, 2013

  Actual Average Record
Temperature  
Mean Temperature 68 °F -  
Max Temperature 73 °F 75 °F 104 °F (2012)
Min Temperature 64 °F 53 °F 50 °F (2002)
Cooling Degree Days 4    
Growing Degree Days 18 (Base 50)    
Moisture  
Dew Point 46 °F    
Average Humidity 41    
Maximum Humidity 49    
Minimum Humidity 27    
Precipitation  
Precipitation 0.00 in 0.03 in - ()
Sea Level Pressure  
Sea Level Pressure 29.97 in    
Wind  
Wind Speed 17 mph ()    
Max Wind Speed 25 mph    
Max Gust Speed 39 mph    
Visibility 9.0 miles    
Events      
Averages and records for this station are not official NWS values.
T = Trace of Precipitation, MM = Missing Value Source: Averaged Metar Reports

Daily Weather History Graph

Daily Weather History Graph

Search for Another Location

Airport or City:

Trip Planner

Search our weather history database for the weather conditions in past years. The results will help you decide how hot, cold, wet, or windy it might be!

Date:

Astronomy

Aug. 18, 2013 Rise Set
Actual Time 6:00 AM PDT 8:18 PM PDT
Civil Twilight 5:24 AM PDT 8:54 PM PDT
Nautical Twilight 4:39 AM PDT 9:38 PM PDT
Astronomical Twilight 3:47 AM PDT 10:30 PM PDT
Moon 6:33 PM PDT (8/18) 3:07 AM PDT (8/18)
Length of Visible Light 15h 29m
Length of Day
14h 18m
Waxing Gibbous, 93% of the Moon is Illuminated
Aug 18
Waxing Gibbous
Aug 20
Full
Aug 28
Last Quarter
Sep 5
New
Sep 12
First Quarter

Hourly Weather History & Observations

Time (PDT) Temp. Dew Point Humidity Pressure Visibility Wind Dir Wind Speed Gust Speed Precip Events Conditions
12:00 AM 68.0 °F 44.6 °F 43% 29.98 in 9.0 mi SSW 15.0 mph 27.6 mph N/A   Clear
1:00 AM 68.0 °F 44.6 °F 43% 29.98 in 9.0 mi SSW 19.6 mph 27.6 mph N/A   Clear
2:00 AM 66 °F 45 °F 36% 29.98 in 9 mi South 17.3 mph - -  
2:00 AM 66.2 °F 44.6 °F 46% 29.98 in 9.0 mi South 16.1 mph 29.9 mph N/A   Clear
3:00 AM 66.2 °F 44.6 °F 46% 29.98 in 9.0 mi South 16.1 mph 29.9 mph N/A   Clear
4:00 AM 66.2 °F 44.6 °F 46% 29.98 in 9.0 mi South 20.7 mph 28.8 mph N/A   Clear
5:00 AM 66 °F 44 °F 33% 29.98 in 9 mi South 18.4 mph - -  
5:00 AM 66.2 °F 44.6 °F 46% 29.98 in 9.0 mi South 19.6 mph 29.9 mph N/A   Clear
6:00 AM 66.2 °F 44.6 °F 46% 29.98 in 9.0 mi South 18.4 mph 29.9 mph N/A   Clear
7:00 AM 64.4 °F 44.6 °F 49% 29.99 in 9.0 mi SSW 15.0 mph 27.6 mph N/A   Clear
8:00 AM 66 °F 46 °F 37% 29.98 in 9 mi South 18.4 mph - -  
8:00 AM 66.2 °F 46.4 °F 49% 29.98 in 9.0 mi South 18.4 mph 28.8 mph N/A   Clear
9:00 AM 68.0 °F 46.4 °F 46% 29.97 in 9.0 mi SSW 15.0 mph 31.1 mph N/A   Clear
10:00 AM 68.0 °F 46.4 °F 46% 29.96 in 9.0 mi SSW 20.7 mph 35.7 mph N/A   Partly Cloudy
11:00 AM 72 °F 47 °F 30% 29.95 in 9 mi South 24.2 mph - -  
11:00 AM 71.6 °F 48.2 °F 43% 29.95 in 9.0 mi South 23.0 mph 38.0 mph N/A   Partly Cloudy
12:00 PM 73.4 °F 46.4 °F 38% 29.96 in 9.0 mi South 21.9 mph 39.1 mph N/A   Scattered Clouds
1:00 PM 73.4 °F 46.4 °F 38% 29.96 in 9.0 mi South 25.3 mph 35.7 mph N/A   Scattered Clouds
2:00 PM 72 °F 46 °F 28% 29.97 in 9 mi SSW 24.2 mph - -  
2:00 PM 71.6 °F 46.4 °F 41% 29.97 in 9.0 mi SSW 24.2 mph 35.7 mph N/A   Scattered Clouds
3:00 PM 71.6 °F 46.4 °F 41% 29.96 in 9.0 mi SSW 23.0 mph 35.7 mph N/A   Partly Cloudy
4:00 PM 73.4 °F 46.4 °F 38% 29.96 in 9.0 mi South 23.0 mph 33.4 mph N/A   Partly Cloudy
5:00 PM 73 °F 46 °F 27% 29.96 in 9 mi South 21.9 mph - -  
5:00 PM 73.4 °F 46.4 °F 38% 29.96 in 9.0 mi South 24.2 mph 33.4 mph N/A   Scattered Clouds
6:00 PM 71.6 °F 46.4 °F 41% 29.96 in 9.0 mi South 18.4 mph 27.6 mph N/A   Scattered Clouds
7:00 PM 71.6 °F 46.4 °F 41% 29.96 in 9.0 mi SSW 19.6 mph 32.2 mph N/A   Partly Cloudy
8:00 PM 70 °F 46 °F 31% 29.96 in 9 mi SSW 19.6 mph - -  
8:00 PM 69.8 °F 46.4 °F 43% 29.96 in 9.0 mi SSW 19.6 mph 29.9 mph N/A   Clear
9:00 PM 68.0 °F 46.4 °F 46% 29.97 in 9.0 mi South 19.6 mph 29.9 mph N/A   Clear
10:00 PM 68.0 °F 46.4 °F 46% 29.98 in 9.0 mi South 19.6 mph 29.9 mph N/A   Clear
11:00 PM 67 °F 45 °F 34% 29.98 in 9 mi South 20.7 mph - -  
11:00 PM 66.2 °F 44.6 °F 46% 29.98 in 9.0 mi South 20.7 mph 31.1 mph N/A   Clear